Simultaneous Nadir Overpasses (SNOs) Predictions

Prediction of SNOs between TERRA and METOP-C Satellite Orbit:

Table of predicted SNOs for the next 14.0 days since TLE Epoch: 9/30/2023
Index Date (TERRA) Time (TERRA) Lat,Lon (TERRA) SZA (TERRA ) Date (METOP-C) Time (METOP-C) Lat,Lon (METOP-C) SZA (METOP-C ) Distance(km) Time Diff (sec)
1 09/30/2023 20:42:50 80.42,-103.60 84.58 09/30/2023 20:42:28 80.43,-103.54 84.58 1.33 22
2 09/30/2023 21:32:10 -80.50, 64.80 95.29 09/30/2023 21:33:06 -80.50, 64.71 95.28 1.58 56
3 10/03/2023 12:04:04 -80.41,-154.04 94.41 10/03/2023 12:03:29 -80.41,-154.00 94.42 0.82 35
4 10/03/2023 12:53:23 80.49, 14.39 85.74 10/03/2023 12:54:06 80.50, 14.53 85.78 2.71 43
5 10/06/2023 03:25:18 80.37, 155.27 86.56 10/06/2023 03:24:31 80.38, 155.37 86.56 2.02 47
6 10/06/2023 04:14:38 -80.46, -36.24 93.29 10/06/2023 04:15:09 -80.46, -36.26 93.28 0.45 31
7 10/08/2023 18:46:32 -80.36, 104.79 92.45 10/08/2023 18:45:33 -80.37, 104.93 92.45 2.83 59
8 10/08/2023 19:35:51 80.43, -86.90 87.68 10/08/2023 19:36:11 80.42, -87.02 87.67 2.26 20
9 10/11/2023 10:07:44 80.32, 54.16 88.51 10/11/2023 10:06:35 80.32, 54.06 88.47 2.14 69
10 10/11/2023 10:57:04 -80.42,-137.26 91.32 10/11/2023 10:57:12 -80.43,-137.14 91.30 2.63 8
11 10/14/2023 02:18:14 80.40, 172.14 89.63 10/14/2023 02:18:12 80.40, 172.20 89.64 1.24 2



Historial Predications of SNOs between TERRA and METOP-C
